RH
12 19 36 28 29 34 33 34 30 35 28 25 45 42 35 30 18 15 9 9 7 9 10 9 10 12 12 11 12 14 20 23 24 24 22 18 12 16 20 20 20 20 17
18 23 42 34 23 29 33 30 26 34 31 27 50 42 37 28 17 26 19 7 8 9 10 10 11 12 12 13 11 12 14 16 18 22 21 19 11 13 15 18 18 16 14
15 17 34 36 24 23 30 28 27 32 32 31 30 44 37 29 8 19 21 12 14 5 7 11 11 12 13 13 12 12 12 12 14 16 18 18 14 13 14 15 14 13 12
14 16 17 29 39 26 24 26 26 28 30 34 35 21 34 30 27 26 24 21 18 14 9 6 8 10 12 12 12 12 12 12 13 14 15 15 16 15 14 14 14 13 13
16 16 19 18 26 40 28 25 24 24 29 28 29 18 15 28 26 15 14 19 19 14 9 8 9 9 8 8 9 11 14 13 13 13 14 14 14 14 12 12 14 16 16
19 16 16 18 18 34 43 29 24 24 23 26 25 16 12 14 15 15 12 11 10 9 9 9 10 11 11 10 11 10 7 8 12 13 13 14 13 11 10 10 10 12 15
67 23 18 16 17 16 38 40 28 25 23 22 23 22 21 18 17 14 14 15 16 17 16 11 10 10 11 15 18 16 12 12 12 9 8 8 9 8 8 8 9 9 10
96 87 45 21 18 18 17 22 34 36 32 23 19 20 21 22 23 23 22 21 20 21 24 24 18 11 10 11 14 18 21 21 15 13 13 11 9 8 8 9 9 8 7
82 93 93 74 88 37 18 17 18 19 20 25 26 20 16 18 19 20 20 19 18 20 24 29 26 18 13 8 9 13 16 17 22 25 21 18 16 15 14 13 13 12 11
45 64 71 85 84 95 20 15 20 24 24 15 13 16 16 12 12 14 16 16 16 17 17 13 11 9 11 12 8 8 10 13 14 17 20 21 24 22 20 19 21 23 27
46 64 68 62 50 95 37 56 59 42 31 25 12 11 11 12 10 8 10 12 13 13 16 18 18 15 9 6 6 5 7 10 9 8 10 11 12 11 11 10 10 12 19
31 43 65 52 37 49 96 99 76 75 77 66 52 29 19 14 13 12 8 8 14 16 14 15 16 18 18 12 8 6 5 5 5 5 6 8 9 9 9 9 9 10 10
25 29 38 62 60 50 58 92 94 78 72 77 79 76 66 62 32 14 18 14 12 12 14 16 18 21 18 16 14 13 12 10 9 7 6 5 6 6 6 7 10 11 10
15 24 31 34 48 58 49 48 75 87 89 67 65 73 86 65 56 52 38 29 19 12 13 14 14 15 20 19 15 17 16 14 12 13 17 17 13 12 15 21 21 16 10
23 20 27 34 45 42 74 37 43 65 90 98 64 67 71 71 58 52 53 26 18 16 19 16 17 16 13 15 19 17 20 18 16 16 18 21 23 24 23 17 15 11 10
27 26 25 22 30 41 34 22 35 39 53 96 77 64 82 71 70 72 66 69 79 64 63 57 62 58 34 15 14 19 22 21 22 23 23 21 20 17 14 11 9 8 7
22 29 28 27 22 24 35 22 15 28 38 94 87 62 69 80 68 75 76 70 66 58 53 64 72 67 60 46 29 17 15 16 17 20 23 25 22 20 14 9 9 11 15
4 13 28 34 29 24 25 22 16 28 50 90 86 96 91 73 73 67 78 86 81 75 69 75 80 66 57 50 42 25 20 24 33 35 35 32 27 25 20 18 21 23 24
6 4 6 23 33 31 27 24 14 16 26 78 87 96 98 80 70 66 70 82 95 95 96 83 75 80 63 36 28 30 34 40 46 45 46 53 54 46 39 39 45 45 49
19 14 5 4 19 29 32 29 23 15 18 51 73 94 93 93 91 74 72 78 89 84 97 94 99 85 78 43 27 31 40 49 58 57 59 65 83 80 80 76 73 72 64
20 24 20 5 3 17 26 27 22 22 50 42 66 68 78 69 49 96 96 94 73 87 78 73 83 70 84 68 36 32 34 45 58 70 82 74 70 65 67 69 63 75 70
33 35 38 21 6 4 17 25 24 20 54 31 43 54 48 41 90 95 74 93 94 72 56 52 48 64 74 91 57 38 42 61 77 89 94 90 76 59 50 66 71 70 60
41 34 32 35 21 4 5 20 25 22 26 41 42 32 46 66 86 67 73 95 89 56 46 49 53 97 97 96 87 56 47 60 75 100 82 86 93 67 43 45 49 50 59
33 36 43 55 33 10 4 8 22 25 23 43 64 28 27 49 88 89 93 80 91 83 78 48 45 92 95 96 96 96 94 96 95 97 96 91 82 78 78 61 70 67 66
28 39 51 60 62 50 10 5 12 24 26 26 61 43 38 31 62 83 86 87 93 75 53 42 57 79 69 62 67 73 80 90 96 97 95 96 95 96 89 64 44 52 47
47 48 62 71 63 66 63 25 6 14 24 24 26 45 48 37 50 81 92 96 98 76 62 48 53 52 45 40 60 61 56 54 78 77 51 40 61 52 25 18 18 19 21
Wind_Speed
32 30 28 27 26 24 23 22 22 22 20 18 17 16 13 13 12 11 11 11 13 14 14 13 12 10 9 9 10 12 12 11 10 9 8 7 8 8 6 5 6 6 6
35 35 32 32 29 26 26 25 24 24 22 19 19 18 16 15 14 14 13 12 12 14 16 16 14 13 12 11 11 11 11 11 11 11 10 10 10 9 9 9 9 11 10
35 38 36 32 30 28 29 28 27 27 25 22 20 21 19 17 15 13 13 12 12 13 14 17 17 16 15 14 14 13 14 14 14 14 14 13 12 11 12 12 13 14 14
33 36 37 35 33 32 31 30 28 28 27 24 23 22 22 19 18 16 14 13 12 12 12 14 16 17 17 16 16 17 16 17 17 17 17 17 18 18 17 16 18 18 18
34 34 35 38 37 35 34 32 31 29 29 28 26 23 22 21 20 18 17 15 14 12 12 11 13 14 16 18 19 19 19 20 20 20 21 21 21 22 21 21 20 22 24
38 38 39 39 41 41 37 35 35 33 31 30 27 26 24 23 22 21 20 18 17 16 15 13 12 11 12 14 16 18 19 21 23 23 25 26 27 26 25 24 23 23 24
41 39 41 41 42 45 45 42 39 37 36 34 32 29 27 26 25 25 24 23 21 19 18 17 16 15 14 13 13 13 15 18 20 22 23 25 26 26 24 25 24 24 25
37 41 45 46 46 47 48 46 44 42 40 37 37 35 33 31 30 29 28 26 24 22 21 20 21 21 20 18 18 16 16 15 18 20 20 22 21 19 18 18 19 22 21
47 45 51 51 56 51 50 44 43 44 43 42 41 39 37 36 35 35 34 30 27 26 26 26 24 24 24 25 23 21 20 20 21 19 15 14 14 15 17 17 19 18 19
52 52 51 45 55 53 53 48 47 47 45 42 42 41 39 38 40 39 38 36 32 28 29 28 28 26 27 29 28 27 24 26 27 23 21 19 17 19 21 21 23 19 17
54 53 55 52 49 43 49 44 44 43 43 42 42 43 41 39 40 41 42 40 35 34 34 33 30 28 30 31 32 29 26 30 32 27 25 24 25 25 26 25 25 24 23
59 59 59 57 50 48 45 47 46 46 45 42 41 39 38 41 42 42 44 44 41 38 36 35 34 34 33 34 34 30 29 31 30 28 27 28 30 30 30 29 29 30 29
64 64 63 61 59 59 55 52 50 51 50 49 46 43 38 39 41 45 45 46 46 43 40 39 38 37 37 37 37 33 33 32 30 29 29 30 33 33 33 32 32 31 30
71 68 68 67 64 63 59 56 50 44 46 52 53 48 41 42 40 41 45 47 47 45 44 45 44 41 38 37 39 38 36 34 33 32 32 32 34 37 37 38 38 38 36
77 77 74 72 69 68 61 60 55 50 49 51 51 51 48 45 42 42 41 42 43 43 43 44 46 44 41 39 39 39 39 39 38 36 36 36 37 40 39 40 40 39 39
85 83 82 80 77 75 72 65 62 56 57 50 54 51 51 48 45 43 43 41 41 42 40 37 37 37 40 42 41 42 42 42 40 39 38 38 39 40 40 39 39 38 37
88 89 88 87 85 83 77 70 66 62 59 54 56 55 53 52 50 49 46 48 49 46 37 34 35 35 35 38 41 41 41 42 43 40 38 37 38 39 40 40 39 37 38
90 90 93 94 92 88 85 78 73 65 59 61 64 57 58 55 54 54 52 50 45 43 40 35 33 32 33 36 38 39 39 40 36 36 37 37 37 36 37 38 38 38 37
78 88 94 97 99 95 92 86 79 71 64 65 59 57 56 57 59 58 55 51 49 49 45 42 39 34 32 36 39 38 37 36 35 33 32 32 32 32 33 33 33 33 34
65 72 84 98 101 102 99 95 88 78 73 69 65 61 57 54 53 62 61 58 53 52 54 52 45 43 39 39 40 39 39 37 37 37 37 34 33 34 34 36 35 35 35
65 63 74 84 101 104 104 102 95 87 77 76 72 67 67 63 59 61 63 61 51 51 51 44 49 49 46 46 45 45 44 43 41 41 41 40 41 40 41 41 41 42 42
61 62 62 70 89 104 106 105 102 96 89 82 79 73 70 64 58 56 54 56 57 51 44 45 46 50 53 52 50 49 48 46 44 44 42 42 43 45 45 45 45 47 47
53 54 49 60 73 96 106 108 106 102 97 89 83 84 69 64 60 55 56 56 58 49 47 46 47 57 51 64 57 54 49 48 49 50 50 46 43 46 46 47 48 51 53
45 49 48 42 46 76 100 108 108 106 103 95 89 88 80 71 74 65 66 65 65 62 59 52 54 55 49 42 45 56 51 50 56 61 54 50 46 47 50 51 55 56 61
44 45 44 45 41 42 72 100 108 109 107 103 97 91 85 80 77 75 73 64 62 59 58 52 54 55 50 49 42 42 41 49 49 46 47 47 49 50 52 56 58 56 55
44 44 43 46 48 45 50 66 97 108 108 106 101 96 90 88 79 80 78 66 70 63 58 54 56 53 47 46 42 45 42 45 48 43 45 46 50 54 54 55 56 56 57
Wind_Direction
216 219 221 212 215 217 218 221 216 209 208 211 207 197 193 183 184 184 191 196 195 198 198 197 198 199 201 205 201 202 202 201 200 205 204 210 204 200 213 241 272 299 335
218 218 222 221 217 216 222 219 220 217 210 207 217 207 194 190 185 186 188 199 206 200 204 210 211 210 211 212 218 220 223 226 227 233 230 230 226 227 237 258 287 304 317
227 224 223 225 223 218 223 224 217 219 217 211 212 215 205 198 194 185 184 193 204 208 214 216 221 222 221 222 224 229 232 235 239 241 244 246 250 253 262 272 288 296 307
237 235 231 230 231 226 223 226 223 218 220 220 220 216 216 209 206 200 199 194 198 201 210 220 227 234 236 236 235 236 238 242 246 250 254 259 264 270 274 277 282 289 295
235 237 234 233 233 233 231 229 229 225 221 222 224 225 222 217 214 212 212 209 209 208 211 216 224 229 238 243 245 245 246 249 250 253 257 260 265 271 275 278 283 289 294
229 233 233 231 229 231 229 228 230 232 229 228 226 227 227 225 224 222 223 222 221 220 224 226 232 233 229 235 244 250 250 251 253 254 257 263 267 271 276 281 285 289 288
223 230 235 233 233 232 230 228 226 227 229 231 231 231 229 229 230 232 233 232 230 230 238 241 241 242 247 246 249 252 253 253 253 255 257 261 264 271 280 285 285 283 280
248 223 231 234 233 234 233 232 232 233 233 232 232 232 232 233 235 236 238 241 244 243 242 245 252 250 249 250 253 256 261 266 263 259 258 263 271 277 282 283 285 284 287
250 250 238 233 235 235 233 230 235 237 237 237 236 237 236 236 238 241 244 244 246 251 254 254 254 256 257 255 253 254 258 265 268 272 274 277 280 276 276 274 276 281 289
243 248 254 254 255 250 231 230 232 237 237 237 239 239 239 241 244 246 247 249 250 253 256 260 261 258 256 258 259 255 256 263 264 270 278 281 277 277 278 282 285 295 299
238 242 249 251 251 223 220 224 230 235 237 237 239 242 241 242 244 246 250 251 251 250 252 255 257 257 257 256 260 261 259 259 267 272 274 276 278 277 278 282 289 291 289
239 240 245 251 251 249 231 239 228 233 236 238 239 238 243 247 246 246 248 249 248 245 245 249 251 253 255 257 257 262 263 263 268 273 276 277 277 278 281 284 286 288 292
237 239 241 246 251 255 257 246 239 238 240 243 243 243 243 248 248 246 246 248 250 249 248 248 248 249 252 258 264 261 261 267 269 270 269 270 274 278 281 284 286 287 285
238 238 240 241 243 249 252 254 253 249 245 244 241 242 240 245 248 251 250 250 250 250 251 253 250 248 250 255 259 264 265 265 267 268 270 270 271 275 280 287 290 293 293
237 239 239 240 242 243 245 247 249 249 235 239 241 239 238 242 244 247 250 250 251 252 251 254 258 258 257 254 257 259 264 265 265 268 271 273 276 279 282 284 288 290 293
238 237 239 239 239 242 243 245 244 247 250 240 238 237 239 240 240 243 246 247 248 250 252 257 261 262 257 254 254 257 260 264 266 267 270 275 276 278 279 280 283 286 287
238 237 238 240 240 241 241 242 241 241 248 241 244 241 240 239 237 238 242 245 251 254 256 262 264 263 258 253 252 255 259 263 266 270 274 275 276 279 279 278 278 280 281
241 237 237 238 239 240 241 238 238 238 239 238 241 241 243 239 238 238 239 244 249 256 254 258 262 259 256 253 250 253 258 261 265 269 273 276 276 276 277 278 279 281 283
251 244 237 236 237 238 239 240 237 235 235 233 239 242 240 240 240 241 241 242 249 251 257 254 258 264 259 253 250 248 251 256 261 266 269 272 275 278 281 282 283 285 289
250 251 246 237 234 235 237 238 238 235 233 229 232 235 234 242 242 242 242 244 245 252 255 256 258 262 259 252 248 246 248 252 255 260 264 266 268 272 276 280 282 281 284
248 254 253 243 235 231 233 235 236 234 231 229 229 232 236 240 243 243 240 247 247 252 255 254 256 259 258 251 248 247 246 247 249 254 257 262 264 269 275 276 278 283 286
247 252 252 252 236 230 229 231 233 233 229 228 229 231 236 239 238 233 232 236 237 242 250 258 260 258 257 250 253 248 245 244 248 257 255 256 263 269 272 275 279 282 286
249 249 255 255 247 228 226 227 229 231 231 229 229 230 229 230 224 226 235 237 235 244 251 260 264 254 254 258 245 245 247 251 251 258 259 259 262 270 274 276 280 283 286
250 251 255 257 251 235 224 224 226 228 230 227 226 228 228 229 228 227 231 235 239 242 249 258 254 256 257 260 256 248 249 256 254 256 255 263 264 267 272 279 282 284 285
247 249 251 251 257 250 234 224 224 225 227 229 225 227 230 228 228 229 231 234 241 244 245 252 253 255 260 263 270 271 270 276 263 254 259 265 271 276 279 281 284 283 285
247 252 256 255 252 255 245 237 226 225 226 228 228 227 228 230 228 227 231 233 240 243 244 250 250 254 260 264 268 270 270 274 277 272 273 278 279 278 279 281 282 284 287